Regional Weather Roundup
Issued by NWS

Home | Current Version | Previous Version | Text Only | Print | Product List | Glossary Off
Versions: 1 2 3 4 5 6 7 8 9 10 11 12 13 14 15 16 17 18 19 20 21 22 23 24 25 26 27 28 29 30 31 32 33 34 35 36 37 38 39 40 41 42 43 44 45 46 47 48 49 50

000
ASUS43 KBIS 231220
RWRND

NORTH DAKOTA REGIONAL WEATHER ROUNDUP
NATIONAL WEATHER SERVICE BISMARCK ND
700 AM CDT WED JUL 23 2014

NOTE: "FAIR" INDICATES FEW OR NO CLOUDS BELOW 12,000 FEET WITH NO
SIGNIFICANT WEATHER AND/OR OBSTRUCTIONS TO VISIBILITY.


NDZ001>003-009>011-017-231300-
NORTHWEST NORTH DAKOTA

CITY           SKY/WX    TMP DP  RH WIND       PRES   REMARKS
WILLISTON      CLEAR     66  62  87 CALM      30.23R
6HR MIN TEMP:  62; 6HR MAX TEMP:  72;

MINOT          LGT RAIN  63  62  97 NE7       30.26S FOG
MINOT AFB      MOCLDY    63  63 100 E12       30.25S
$$

NDZ018>021-031>035-040>046-231300-
SOUTHWEST NORTH DAKOTA

CITY           SKY/WX    TMP DP  RH WIND       PRES   REMARKS
BISMARCK       PTCLDY    65  61  87 E7        30.27R
6HR MIN TEMP:  64; 6HR MAX TEMP:  67;

DICKINSON      CLEAR     60  59  96 E8        30.22F
GARRISON         N/A     65  63  93 E7        30.25S
6HR MIN TEMP:  64; 6HR MAX TEMP:  69; 6HR PCP:  0.23;

HETTINGER ARPT CLEAR     61  58  90 SE8       30.24F
$$

NDZ004>008-012>016-024-026-027-054-231300-
NORTHEAST NORTH DAKOTA

CITY           SKY/WX    TMP DP  RH WIND       PRES   REMARKS
GRAND FORKS    CLOUDY    59  57  93 NW3       30.30R
GRND FRKS AFB  CLOUDY    58  58 100 N7        30.31R
DEVILS LAKE    CLOUDY    61  54  77 E6        30.31R
$$

NDZ022-023-025-028>030-036>039-047>053-231300-
SOUTHEAST NORTH DAKOTA

CITY           SKY/WX    TMP DP  RH WIND       PRES   REMARKS
FARGO          PTCLDY    60  56  86 CALM      30.29R
6HR MIN TEMP:  57; 6HR MAX TEMP:  62;

JAMESTOWN      CLOUDY    62  58  86 CALM      30.31R
$$



USA.gov is the U.S. government's official web portal to all federal, state and local government web resources and services.